This demonstration page uses our WeatherBlox Daily Observations layout. Learn more.

Left ArrowRight Arrow

38.83388, -104.82136

Hourly Observations for January 20, 2017

Temp ( °F °C ) Dew Point ( °F °C ) Humidity (%) Winds ( mph kmh ) Pressure ( in mb ) Visibility ( mi km ) Precip ( " mm )
12:58 am 00:58 Cloudy 41 5 20 -6.8 43 43 N 7 11 29.06 984 10 16 0.00 0.00
1:58 am 01:58 Cloudy 37 3 20 -6.9 49 49 NW 3 6 29.08 985 10 16 0.00 0.00
2:18 am 02:18 Cloudy with Light Rain 39 4 27 -3 61 61 NW 6 9 29.32 993 10 16 0.00 0.00
2:48 am 02:48 Cloudy with Light Showers 37 3 28 -2 70 70 SE 7 11 29.35 994 10 16 0.00 0.00
2:58 am 02:58 Cloudy with Light Rain/Snow 36 2.3 29 -1.8 75 75 Calm 29.08 985 10 16 0.00 0.00
3:09 am 03:09 Cloudy 36 2 28 -2 75 75 S 3 6 29.38 995 10 16 0.00 0.00
3:14 am 03:14 Cloudy 36 2 28 -2 75 75 SSW 3 6 29.38 995 10 16 0.00 0.00
3:58 am 03:58 Cloudy 35 1.8 28 -2.2 75 75 Calm 29.08 985 10 16 0.00 0.00
4:58 am 04:58 Mostly Cloudy 34 1.3 27 -2.7 75 75 SSE 3 6 29.08 985 10 16 0.00 0.00
5:58 am 05:58 Cloudy 32 0.2 28 -2.4 83 83 NNW 8 13 29.12 986 10 16 0.00 0.00
6:53 am 06:53 Mostly Cloudy 32 0 28 -2 87 87 NNW 8 13 29.44 997 10 16 0.00 0.00
6:58 am 06:58 Mostly Cloudy 32 -0.1 28 -2.3 85 85 NNW 7 11 29.13 986 10 16 0.00 0.00
7:30 am 07:30 Mostly Cloudy with Light Rain 32 0 27 -3 80 80 NNW 5 7 29.44 997 10 16 0.00 0.00
7:58 am 07:58 Cloudy with Light Rain/Snow 32 0 28 -2.5 83 83 NW 5 7 29.13 986 10 16 0.00 0.00
8:13 am 08:13 Cloudy with Light Showers 32 0 28 -2 87 87 N 3 6 29.44 997 10 16 0.00 0.00
8:58 am 08:58 Cloudy with Light Snow Showers 31 -0.3 28 -2.1 88 88 NW 5 7 29.14 987 2 2 0.00 0.00
9:18 am 09:18 Mostly Cloudy with Light Rain/Snow 32 0 28 -2 87 87 N 3 6 29.44 997 3 5 0.00 0.00
9:23 am 09:23 Mostly Cloudy with Light Rain/Snow 32 0 28 -2 87 87 N 6 9 29.44 997 5 8 0.00 0.00
9:58 am 09:58 Mostly Cloudy with Light Rain/Snow 32 -0.2 31 -0.7 96 96 SE 3 6 29.15 987 3 5 0.00 0.00
10:13 am 10:13 Mostly Cloudy with Light Rain 30 -1 30 -1 100 100 SE 5 7 29.47 998 0 0 0.00 0.00
10:18 am 10:18 Mostly Cloudy with Light Rain 30 -1 30 -1 100 100 SE 3 6 29.47 998 0 0 0.00 0.00
10:23 am 10:23 Mostly Cloudy with Light Rain 30 -1 30 -1 100 100 Calm 29.47 998 5 8 0.00 0.00
10:38 am 10:38 Mostly Cloudy with Light Rain/Snow 32 0 32 0 100 100 Calm 29.44 997 3 5 0.00 0.00
10:58 am 10:58 Mostly Cloudy with Light Rain/Snow 32 -0.1 31 -0.6 96 96 E 3 6 29.14 987 8 13 0.01 0.25
11:28 am 11:28 Mostly Cloudy with Light Snow 30 -1 30 -1 100 100 ESE 3 6 29.47 998 1 1 0.00 0.00
11:58 am 11:58 Mostly Cloudy with Light Rain/Snow 31 -0.8 31 -0.7 100 100 Calm 29.13 986 4 6 0.00 0.00
12:16 pm 12:16 Mostly Cloudy 32 0 32 0 100 100 N 3 6 29.44 997 10 16 0.00 0.00
12:31 pm 12:31 Cloudy 32 0 32 0 100 100 NE 3 6 29.41 996 10 16 0.00 0.00
12:58 pm 12:58 Cloudy 32 0 31 -0.6 96 96 SE 5 7 29.08 985 9 14 0.00 0.00
1:03 pm 13:03 Cloudy 32 0 32 0 100 100 Calm 29.41 996 10 16 0.00 0.00
1:58 pm 13:58 Cloudy 32 -0.1 31 -0.6 96 96 SSE 6 9 29.07 984 10 16 0.00 0.00
2:52 pm 14:52 Mostly Cloudy with Light Rain 32 0 32 0 100 100 S 10 17 29.41 996 10 16 0.00 0.00
2:58 pm 14:58 Mostly Cloudy with Light Rain 32 0 31 -0.6 96 96 S 12 19 29.08 985 10 16 0.00 0.00
3:33 pm 15:33 Mostly Cloudy with Light Rain 32 0 32 0 100 100 SSW 16 26 29.35 994 10 16 0.00 0.00
3:45 pm 15:45 Mostly Cloudy 32 0 30 -1 93 93 SSW 15 24 29.41 996 3 5 0.00 0.00
3:49 pm 15:49 Mostly Cloudy with Light Showers 32 0 32 0 100 100 SSW 15 24 29.41 996 3 4 0.00 0.00
3:58 pm 15:58 Mostly Cloudy with Light Showers 32 -0.2 31 -0.5 98 98 S 14 22 29.08 985 4 6 0.00 0.00
4:03 pm 16:03 Mostly Cloudy with Light Showers 32 0 32 0 100 100 S 10 17 29.41 996 8 13 0.00 0.00
4:04 pm 16:04 Mostly Cloudy 32 0 32 0 100 100 S 12 19 29.41 996 7 11 0.00 0.00
4:58 pm 16:58 Partly Cloudy 31 -0.4 31 -0.7 98 98 S 12 19 29.10 986 10 16 0.00 0.00
5:58 pm 17:58 Mostly Clear 30 -0.9 28 -2 92 92 NW 7 11 29.13 987 10 16 0.00 0.00
6:13 pm 18:13 Mostly Cloudy 30 -1 28 -2 93 93 N 7 11 29.47 998 10 16 0.00 0.00
6:58 pm 18:58 Mostly Cloudy 29 -1.4 29 -1.8 97 97 WNW 3 6 29.17 988 9 14 0.00 0.00
7:13 pm 19:13 Partly Cloudy 28 -2 28 -2 100 100 Calm 29.50 999 10 16 0.00 0.00
7:23 pm 19:23 Mostly Cloudy with Mist and Fog 28 -2 28 -2 100 100 Calm 29.50 999 4 6 0.00 0.00
7:38 pm 19:38 Mostly Cloudy with Freezing Fog 28 -2 28 -2 100 100 Calm 29.50 999 5 8 0.00 0.00
7:58 pm 19:58 Mostly Cloudy with Freezing Fog 28 -2.4 28 -2.5 99 99 NNW 6 9 29.17 988 1 2 0.00 0.00
8:28 pm 20:28 Mostly Cloudy with Mist and Fog 28 -2 27 -3 93 93 Calm 29.50 999 2 3 0.00 0.00
8:43 pm 20:43 Mostly Cloudy 28 -2 25 -4 86 86 SE 3 6 29.50 999 10 16 0.00 0.00
8:58 pm 20:58 Partly Cloudy 29 -1.7 21 -6.3 71 71 S 3 6 29.17 988 10 16 0.00 0.00
9:58 pm 21:58 Partly Cloudy 29 -1.8 22 -5.8 74 74 NNW 8 13 29.17 988 10 16 0.00 0.00
10:58 pm 22:58 Mostly Cloudy 27 -2.7 24 -4.7 86 86 Calm 29.18 988 10 16 0.00 0.00
11:58 pm 23:58 Mostly Cloudy 33 0.3 13 -10.5 45 45 WNW 9 15 29.12 986 10 16 0.00 0.00

Powered by AerisWeather